DL1NER Weather Reports


time (UTC)temp
F
wind
direction
speed
knots
gust
knots
rain 1hr
in
rain 24hr
in
rain mn
in
humidity
%
barometer
mb
20260510115011 75 38 2.6 8.7 0.00 0.00 0.00 38 1009.8
20260510114012 76 133 1.7 8.7 0.00 0.00 0.00 40 1010.0
20260510113012 76 119 4.3 9.6 0.00 0.00 0.00 37 1010.1
20260510112011 75 126 2.6 8.7 0.00 0.00 0.00 42 1010.2
20260510111011 75 108 2.6 7.0 0.00 0.00 0.00 39 1010.3
20260510110012 74 125 4.3 9.6 0.00 0.00 0.00 42 1010.6
20260510105011 74 86 4.3 12.2 0.00 0.00 0.00 39 1010.6
20260510103012 74 98 2.6 7.8 0.00 0.00 0.00 42 1010.9
20260510102011 73 113 3.5 7.8 0.00 0.00 0.00 45 1011.0
20260510101012 73 111 1.7 9.6 0.00 0.00 0.00 46 1011.1
20260510095012 72 129 3.5 10.4 0.00 0.00 0.00 49 1011.3
20260510094012 72 128 2.6 8.7 0.00 0.00 0.00 49 1011.4
20260510092011 71 134 3.5 8.7 0.00 0.00 0.00 49 1011.5
20260510091011 70 101 3.5 7.0 0.00 0.00 0.00 51 1011.6
20260510090011 69 88 4.3 8.7 0.00 0.00 0.00 50 1011.7
20260510085012 68 129 1.7 5.2 0.00 0.00 0.00 52 1011.9
20260510084011 68 84 1.7 6.1 0.00 0.00 0.00 53 1012.1
20260510083011 67 88 2.6 7.0 0.00 0.00 0.00 52 1012.2
20260510081011 65 80 3.5 7.8 0.00 0.00 0.00 64 1012.5
20260510074010 64 148 1.7 7.0 0.00 0.00 0.00 63 1012.6
20260510073010 62 80 1.7 4.3 0.00 0.00 0.00 66 1012.6
20260510072010 61 80 2.6 6.1 0.00 0.00 0.00 67 1012.7
20260510070008 58 115 2.6 6.1 0.00 0.00 0.00 74 1013.0
20260510065008 57 79 3.5 6.1 0.00 0.00 0.00 75 1013.2
20260510064008 57 79 3.5 6.1 0.00 0.00 0.00 75 1013.2
20260510063008 53 94 1.7 5.2 0.00 0.00 0.00 87 1013.2
20260510062008 53 94 1.7 5.2 0.00 0.00 0.00 87 1013.2
20260510061009 51 103 0.9 5.2 0.00 0.00 0.00 90 1013.1
20260510060009 51 83 1.7 6.1 0.00 0.00 0.00 92 1013.1
20260510055008 50 163 0.9 4.3 0.00 0.00 0.00 93 1013.2
20260510054012 49 240 0.0 1.7 0.00 0.00 0.00 93 1013.3
20260510053013 49 240 0.0 1.7 0.00 0.00 0.00 92 1013.4
20260510052012 48 240 0.0 0.9 0.00 0.00 0.00 92 1013.3
20260510051012 47 240 0.0 0.0 0.00 0.00 0.00 92 1013.4
20260510050012 46 240 0.0 0.0 0.00 0.00 0.00 92 1013.5
20260510044012 45 240 0.0 0.0 0.00 0.00 0.00 91 1013.8
20260510043012 45 240 0.0 0.0 0.00 0.00 0.00 91 1013.9
20260510042012 45 240 0.0 0.0 0.00 0.00 0.00 90 1013.8
20260510041012 45 240 0.0 0.0 0.00 0.00 0.00 89 1013.7
20260510035012 45 240 0.0 0.0 0.00 0.00 0.00 87 1013.6
20260510033012 45 240 0.0 0.0 0.00 0.00 0.00 87 1013.6
20260510032012 45 240 0.0 0.9 0.00 0.00 0.00 87 1013.7
20260510031011 46 166 0.0 0.0 0.00 0.00 0.00 86 1013.8
20260510030011 46 36 0.0 0.0 0.00 0.00 0.00 86 1013.9
20260510025011 46 36 0.0 0.0 0.00 0.00 0.00 86 1013.9
20260510024011 46 36 0.0 0.0 0.00 0.00 0.00 84 1014.0
20260510023011 46 36 0.0 0.0 0.00 0.00 0.00 83 1014.0
20260510022011 46 36 0.0 0.0 0.00 0.00 0.00 83 1014.1
20260510021011 47 36 0.0 0.0 0.00 0.00 0.00 83 1014.0
20260510020011 47 36 0.0 0.0 0.00 0.00 0.00 83 1014.1
20260510015011 47 36 0.0 0.0 0.00 0.00 0.00 83 1014.1
20260510014011 47 36 0.0 0.0 0.00 0.00 0.00 83 1014.1
20260510013011 48 36 0.0 1.7 0.00 0.00 0.00 82 1014.3
20260510012011 48 36 0.0 1.7 0.00 0.00 0.00 80 1014.3
20260510011011 48 36 0.0 0.9 0.00 0.00 0.00 79 1014.3
20260510010011 48 36 0.0 0.0 0.00 0.00 0.00 79 1014.3
20260510005011 49 36 0.0 1.7 0.00 0.00 0.00 79 1014.4
20260510004011 49 36 0.9 1.7 0.00 0.00 0.00 78 1014.5
20260510003011 49 36 0.0 2.6 0.00 0.00 0.00 78 1014.6
20260510002011 49 38 0.0 0.0 0.00 0.00 0.00 77 1014.7
20260510000011 50 38 0.0 0.0 0.00 0.00 0.00 74 1014.9
20260509235010 50 38 0.0 0.0 0.00 0.00 0.00 73 1014.9
20260509234011 50 38 0.0 0.0 0.00 0.00 0.00 73 1014.9
20260509233011 51 38 0.0 0.0 0.00 0.00 0.00 73 1014.9
20260509232010 51 38 0.0 0.0 0.00 0.00 0.00 72 1015.3
20260509231010 51 38 0.0 0.0 0.00 0.00 0.00 72 1015.5
20260509230010 52 38 0.0 0.0 0.00 0.00 0.00 72 1015.6
20260509225010 52 38 0.0 0.0 0.00 0.00 0.00 71 1015.7
20260509224010 52 38 0.0 0.0 0.00 0.00 0.00 71 1015.7
20260509223010 53 38 0.0 0.0 0.00 0.00 0.00 70 1015.6
20260509222010 53 38 0.0 1.7 0.00 0.00 0.00 70 1015.6
20260509221010 54 38 0.9 1.7 0.00 0.00 0.00 69 1015.5
20260509220010 54 38 0.0 1.7 0.00 0.00 0.00 69 1015.4
20260509215011 55 38 0.0 1.7 0.00 0.00 0.00 67 1015.3
20260509214010 56 38 0.0 0.0 0.00 0.00 0.00 66 1015.4
20260509213011 56 38 0.0 0.9 0.00 0.00 0.00 66 1015.4
20260509212011 57 38 0.0 0.0 0.00 0.00 0.00 64 1015.3
20260509211010 57 38 0.0 0.0 0.00 0.00 0.00 63 1015.4
20260509210011 58 38 0.0 0.0 0.00 0.00 0.00 61 1015.5
20260509201011 61 31 0.0 2.6 0.00 0.00 0.00 57 1015.7
20260509200010 61 31 0.9 2.6 0.00 0.00 0.00 56 1015.7
20260509195009 62 31 0.9 2.6 0.00 0.00 0.00 55 1015.5
20260509194011 62 31 0.9 2.6 0.00 0.00 0.00 54 1015.6
20260509193009 64 31 0.9 2.6 0.00 0.00 0.00 53 1015.4
20260509192010 64 31 0.9 2.6 0.00 0.00 0.00 53 1015.4
20260509191009 65 31 2.6 5.2 0.00 0.00 0.00 52 1015.2
20260509190009 65 31 2.6 5.2 0.00 0.00 0.00 52 1015.2
20260509185009 66 47 2.6 4.3 0.00 0.00 0.00 52 1015.2
20260509184009 67 29 1.7 3.5 0.00 0.00 0.00 52 1015.2
20260509183009 67 27 1.7 7.0 0.00 0.00 0.00 51 1015.2
20260509181010 67 24 1.7 4.3 0.00 0.00 0.00 50 1015.2
20260509180009 68 345 1.7 4.3 0.00 0.00 0.00 50 1015.1
20260509175009 69 316 2.6 6.1 0.00 0.00 0.00 49 1015.0
20260509174016 69 316 2.6 6.1 0.00 0.00 0.00 49 1015.0
20260509173009 69 67 1.7 4.3 0.00 0.00 0.00 47 1015.0
20260509172014 69 67 1.7 4.3 0.00 0.00 0.00 47 1015.0
20260509171013 69 74 1.7 3.5 0.00 0.00 0.00 46 1015.1
20260509170013 70 78 2.6 5.2 0.00 0.00 0.00 48 1015.0
20260509165013 70 17 2.6 6.1 0.00 0.00 0.00 46 1015.0
20260509164013 70 82 3.5 6.1 0.00 0.00 0.00 48 1015.0
20260509162013 71 83 3.5 7.8 0.00 0.00 0.00 46 1015.3
20260509160013 71 20 0.9 4.3 0.00 0.00 0.00 46 1015.5
20260509154013 71 90 1.7 4.3 0.00 0.00 0.00 45 1015.5
20260509153013 72 348 2.6 6.1 0.00 0.00 0.00 43 1015.6
20260509152013 72 33 3.5 8.7 0.00 0.00 0.00 43 1015.7
20260509151013 73 38 2.6 8.7 0.00 0.00 0.00 44 1015.7
20260509150013 73 343 1.7 6.1 0.00 0.00 0.00 43 1015.9
20260509144014 72 78 3.5 7.0 0.00 0.00 0.00 47 1016.1
20260509143012 71 5 2.6 7.0 0.00 0.00 0.00 47 1016.2
20260509142013 70 350 2.6 5.2 0.00 0.00 0.00 46 1016.3
20260509141013 70 355 2.6 5.2 0.00 0.00 0.00 47 1016.5
20260509140012 71 86 1.7 5.2 0.00 0.00 0.00 45 1016.6
20260509135012 73 75 1.7 6.1 0.00 0.00 0.00 43 1016.8
20260509134012 72 119 1.7 5.2 0.00 0.00 0.00 43 1016.8
20260509133012 72 118 1.7 7.0 0.00 0.00 0.00 46 1016.9
20260509132012 72 114 2.6 7.8 0.00 0.00 0.00 46 1017.0
20260509131013 72 83 2.6 7.8 0.00 0.00 0.00 45 1017.1
20260509130012 71 80 1.7 6.1 0.00 0.00 0.00 49 1017.3
20260509125012 72 96 1.7 6.1 0.00 0.00 0.00 45 1017.4
20260509123012 70 176 1.7 6.1 0.00 0.00 0.00 50 1017.6
20260509122012 70 96 0.9 2.6 0.00 0.00 0.00 50 1017.7
20260509121012 70 24 1.7 3.5 0.00 0.00 0.00 51 1017.7
20260509120012 70 47 0.9 4.3 0.00 0.00 0.00 50 1017.8